Location: Rosenheim
(47.8408°N, 12.2113°E)
Time: 12:28:22
(UTC+01:00)

ISS - Pass Details

Date: 13 January 2018
Orbit: 402 x 407 km, 51.6° (Epoch: 18 January)

Event Time Altitude Azimuth Distance (km) Brightness Sun altitude
Exits shadow 05:33:54 40° 123° (ESE) 608 -2.6 -23.3°
Drops below altitude 10° 05:36:08 10° 118° (ESE) 1,463 -0.1 -22.9°
Sets 05:38:13 0° 118° (ESE) 2,322 1.2 -22.6°
